WB0RXX Weather Reports


time (UTC)temp
F
wind
direction
speed
knots
gust
knots
rain 1hr
in
rain 24hr
in
rain mn
in
humidity
%
barometer
mb
20260906192004 76 174 5.2 7.0 0.00 0.00 0.00 86 1016.9
20260906181003 76 184 0.9 4.3 0.00 0.00 0.00 92 1016.9
20260906173005 76 166 5.2 8.7 0.00 0.00 0.00 90 1017.2
20260906172004 76 178 5.2 12.2 0.00 0.00 0.00 91 1017.5
20260906170004 76 169 3.5 7.0 0.00 0.00 0.00 91 1017.2
20260906163004 75 166 1.7 6.1 0.00 0.00 0.00 91 1016.8
20260906151004 74 151 4.3 10.4 0.00 0.00 0.00 94 1017.3
20260906144004 73 165 1.7 2.6 0.00 0.00 0.00 94 1016.9
20260906142004 73 151 0.0 0.0 0.00 0.00 0.00 94 1016.9
20260906141003 73 159 0.9 3.5 0.00 0.00 0.00 94 1016.8
20260906131005 72 165 2.6 5.2 0.00 0.00 0.00 96 1016.9
20260906130004 72 159 1.7 5.2 0.00 0.00 0.00 96 1016.9
20260906123004 72 156 3.5 5.2 0.00 0.00 0.00 96 1016.6
20260906115003 72 144 5.2 11.3 0.00 0.00 0.00 96 1016.2
20260906114004 72 144 3.5 8.7 0.00 0.00 0.00 96 1016.2
20260906113003 72 147 0.0 2.6 0.00 0.00 0.00 96 1016.1
20260906112003 72 146 4.3 10.4 0.00 0.00 0.00 96 1016.3
20260906104005 72 153 4.3 7.0 0.00 0.00 0.00 95 1016.4
20260906091003 72 160 1.7 6.1 0.00 0.00 0.00 95 1016.1
20260906085004 72 152 2.6 7.0 0.00 0.00 0.00 95 1016.1
20260906080004 72 141 3.5 7.0 0.00 0.00 0.00 94 1016.1
20260906071004 73 119 0.9 3.5 0.00 0.00 0.00 94 1016.1
20260906063004 73 137 1.7 2.6 0.00 0.00 0.00 94 1016.3
20260906061003 73 121 1.7 3.5 0.00 0.00 0.00 93 1016.4
20260906060004 73 144 2.6 5.2 0.00 0.00 0.00 94 1016.3
20260906054003 74 134 2.6 6.1 0.00 0.00 0.00 94 1016.4
20260906045004 75 93 0.0 1.7 0.00 0.00 0.00 94 1016.2
20260906042004 75 90 0.0 0.0 0.00 0.00 0.00 94 1016.4
20260906041005 76 55 0.0 0.9 0.00 0.00 0.00 94 1016.3
20260906040003 76 87 0.0 0.0 0.00 0.00 0.00 94 1016.3
20260906033003 75 130 0.9 3.5 0.00 0.00 0.00 94 1015.9
20260906031004 75 123 1.7 3.5 0.00 0.00 0.00 93 1015.6
20260906024004 76 124 0.9 5.2 0.00 0.00 0.00 92 1015.6
20260906021002 77 103 0.0 0.0 0.00 0.00 0.00 91 1015.5
20260906015004 77 139 0.9 3.5 0.00 0.00 0.00 90 1015.4
20260906012003 78 142 0.0 0.0 0.00 0.00 0.00 88 1015.3
20260906011004 79 140 0.9 2.6 0.00 0.00 0.00 88 1015.4
20260906004004 80 171 5.2 6.1 0.00 0.00 0.00 86 1014.9
20260905234003 82 146 5.2 9.6 0.00 0.00 0.00 82 1014.7
20260905231003 83 148 7.0 11.3 0.00 0.00 0.00 80 1014.6
20260905225005 83 140 7.0 11.3 0.00 0.00 0.00 79 1014.5
20260905223004 83 132 4.3 7.8 0.00 0.00 0.00 78 1014.3
20260905222006 83 156 8.7 13.0 0.00 0.00 0.00 76 1014.3
20260905221003 84 142 7.8 11.3 0.00 0.00 0.00 76 1014.4
20260905220003 84 126 7.0 10.4 0.00 0.00 0.00 74 1014.3
20260905214005 84 151 6.1 13.0 0.00 0.00 0.00 71 1014.3
20260905212005 84 135 6.1 11.3 0.00 0.00 0.00 70 1014.4
20260905210006 84 116 4.3 9.6 0.00 0.00 0.00 69 1014.5
20260905204004 84 100 6.1 10.4 0.00 0.00 0.00 69 1014.5
20260905202005 84 92 5.2 7.8 0.00 0.00 0.00 70 1014.5
20260905194004 84 131 3.5 6.1 0.00 0.00 0.00 69 1014.7